Time,TemperatureF,DewpointF,PressureIn,WindDirection,WindDirectionDegrees,WindSpeedMPH,WindSpeedGustMPH,Humidity,HourlyPrecipIn,Conditions,Clouds,dailyrainin,SoftwareType,DateUTC
2013-02-03 00:03:00,20.0,18.0,29.96,South,189,0.0,1.0,90,0.00,,,0.00,,2013-02-03 05:03:00,
2013-02-03 00:12:00,20.0,18.0,29.96,South,189,0.0,1.0,90,0.00,,,0.00,,2013-02-03 05:12:00,
2013-02-03 00:22:00,20.0,18.0,29.96,South,189,0.0,1.0,90,0.00,,,0.00,,2013-02-03 05:22:00,
2013-02-03 00:32:00,20.0,18.0,29.95,South,189,0.0,1.0,90,0.00,,,0.00,,2013-02-03 05:32:00,
2013-02-03 00:42:00,20.0,18.0,29.95,South,189,0.0,1.0,90,0.00,,,0.00,,2013-02-03 05:42:00,
2013-02-03 00:52:00,20.0,18.0,29.95,South,189,0.0,1.0,90,0.00,,,0.00,,2013-02-03 05:52:00,
2013-02-03 01:02:00,20.0,18.0,29.94,South,189,0.0,0.0,91,0.00,,,0.00,,2013-02-03 06:02:00,
2013-02-03 01:11:00,20.0,18.0,29.94,South,189,0.0,0.0,91,0.00,,,0.00,,2013-02-03 06:11:00,
2013-02-03 01:21:00,20.0,18.0,29.93,South,189,0.0,0.0,91,0.00,,,0.00,,2013-02-03 06:21:00,
2013-02-03 01:32:00,20.0,18.0,29.93,South,189,0.0,0.0,91,0.00,,,0.00,,2013-02-03 06:32:00,
2013-02-03 01:42:00,20.0,18.0,29.93,South,189,0.0,0.0,91,0.00,,,0.00,,2013-02-03 06:42:00,
2013-02-03 01:52:00,19.0,17.0,29.92,South,189,0.0,0.0,91,0.00,,,0.00,,2013-02-03 06:52:00,
2013-02-03 02:01:00,19.0,17.0,29.92,South,189,0.0,0.0,91,0.00,,,0.00,,2013-02-03 07:01:00,
2013-02-03 02:11:00,19.0,17.0,29.92,South,189,0.0,0.0,91,0.00,,,0.00,,2013-02-03 07:11:00,
2013-02-03 02:21:00,18.0,16.0,29.91,South,189,0.0,0.0,91,0.00,,,0.00,,2013-02-03 07:21:00,
2013-02-03 02:31:00,18.0,16.0,29.91,South,189,0.0,0.0,91,0.00,,,0.00,,2013-02-03 07:31:00,
2013-02-03 02:42:00,18.0,16.0,29.91,South,189,0.0,0.0,91,0.00,,,0.00,,2013-02-03 07:42:00,
2013-02-03 02:52:00,18.0,16.0,29.90,South,189,0.0,0.0,91,0.00,,,0.00,,2013-02-03 07:52:00,
2013-02-03 03:01:00,17.0,15.0,29.89,South,189,0.0,0.0,91,0.00,,,0.00,,2013-02-03 08:01:00,
2013-02-03 03:11:00,17.0,15.0,29.89,South,189,0.0,0.0,91,0.00,,,0.00,,2013-02-03 08:11:00,
2013-02-03 03:22:00,17.0,15.0,29.89,South,189,0.0,0.0,91,0.00,,,0.00,,2013-02-03 08:22:00,
2013-02-03 03:32:00,17.0,15.0,29.88,South,189,0.0,0.0,91,0.00,,,0.00,,2013-02-03 08:32:00,
2013-02-03 03:41:00,17.0,15.0,29.88,South,189,0.0,0.0,91,0.00,,,0.00,,2013-02-03 08:41:00,
2013-02-03 03:52:00,16.0,14.0,29.87,South,189,0.0,0.0,91,0.00,,,0.00,,2013-02-03 08:52:00,
2013-02-03 04:02:00,17.0,15.0,29.87,South,189,0.0,0.0,92,0.00,,,0.00,,2013-02-03 09:02:00,
2013-02-03 04:11:00,17.0,15.0,29.87,South,189,0.0,0.0,92,0.00,,,0.00,,2013-02-03 09:11:00,
2013-02-03 04:21:00,17.0,15.0,29.86,South,189,0.0,0.0,92,0.00,,,0.00,,2013-02-03 09:21:00,
2013-02-03 04:31:00,18.0,16.0,29.86,South,189,0.0,0.0,92,0.00,,,0.00,,2013-02-03 09:31:00,
2013-02-03 04:42:00,18.0,16.0,29.86,South,189,0.0,0.0,92,0.00,,,0.00,,2013-02-03 09:42:00,
2013-02-03 04:52:00,18.0,16.0,29.85,South,189,0.0,0.0,92,0.00,,,0.00,,2013-02-03 09:52:00,
2013-02-03 05:01:00,18.0,16.0,29.85,South,189,0.0,1.0,92,0.00,,,0.00,,2013-02-03 10:01:00,
2013-02-03 05:11:00,19.0,17.0,29.85,South,189,0.0,0.0,92,0.00,,,0.00,,2013-02-03 10:11:00,
2013-02-03 05:21:00,19.0,17.0,29.85,South,189,0.0,0.0,92,0.00,,,0.00,,2013-02-03 10:21:00,
2013-02-03 05:31:00,19.0,17.0,29.85,NE,37,0.0,1.0,92,0.00,,,0.00,,2013-02-03 10:31:00,
2013-02-03 05:42:00,19.0,17.0,29.85,NE,37,0.0,1.0,92,0.00,,,0.00,,2013-02-03 10:42:00,
2013-02-03 05:53:00,19.0,17.0,29.85,NE,37,0.0,2.0,92,0.00,,,0.00,,2013-02-03 10:53:00,
2013-02-03 06:02:00,19.0,17.0,29.85,NE,34,0.0,3.0,91,0.00,,,0.00,,2013-02-03 11:02:00,
2013-02-03 06:11:00,19.0,17.0,29.85,NE,34,0.0,3.0,91,0.00,,,0.00,,2013-02-03 11:11:00,
2013-02-03 06:22:00,19.0,17.0,29.85,NNE,32,0.0,3.0,91,0.00,,,0.00,,2013-02-03 11:22:00,
2013-02-03 06:32:00,19.0,17.0,29.85,NNE,32,1.0,2.0,91,0.00,,,0.00,,2013-02-03 11:32:00,
2013-02-03 06:42:00,19.0,17.0,29.85,NNE,32,1.0,2.0,91,0.00,,,0.00,,2013-02-03 11:42:00,
2013-02-03 06:52:00,19.0,17.0,29.85,NNE,32,0.0,1.0,91,0.00,,,0.00,,2013-02-03 11:52:00,
2013-02-03 07:02:00,19.0,17.0,29.85,NNE,32,1.0,2.0,91,0.00,,,0.00,,2013-02-03 12:02:00,
2013-02-03 07:12:00,19.0,17.0,29.85,NNE,32,1.0,2.0,91,0.00,,,0.00,,2013-02-03 12:12:00,
2013-02-03 07:22:00,19.0,17.0,29.85,NNE,32,0.0,0.0,90,0.00,,,0.00,,2013-02-03 12:22:00,
2013-02-03 07:32:00,19.0,17.0,29.85,NNE,32,0.0,1.0,91,0.00,,,0.00,,2013-02-03 12:32:00,
2013-02-03 07:42:00,19.0,17.0,29.85,NNE,32,0.0,1.0,91,0.00,,,0.00,,2013-02-03 12:42:00,
2013-02-03 07:53:00,19.0,17.0,29.85,NNE,32,0.0,0.0,91,0.00,,,0.00,,2013-02-03 12:53:00,
2013-02-03 08:03:00,19.0,17.0,29.86,NNE,32,0.0,2.0,91,0.00,,,0.00,,2013-02-03 13:03:00,
2013-02-03 08:11:00,19.0,17.0,29.86,SE,143,0.0,2.0,91,0.00,,,0.00,,2013-02-03 13:11:00,
2013-02-03 08:22:00,19.0,17.0,29.86,SE,143,0.0,2.0,91,0.00,,,0.00,,2013-02-03 13:22:00,
2013-02-03 08:32:00,19.0,17.0,29.87,SSE,149,0.0,4.0,91,0.00,,,0.00,,2013-02-03 13:32:00,
2013-02-03 08:42:00,19.0,17.0,29.87,SSE,149,0.0,4.0,91,0.00,,,0.00,,2013-02-03 13:42:00,
2013-02-03 08:52:00,19.0,17.0,29.87,ENE,78,2.0,6.0,91,0.00,,,0.00,,2013-02-03 13:52:00,
2013-02-03 09:02:00,19.0,17.0,29.86,SSE,160,3.0,4.0,90,0.00,,,0.00,,2013-02-03 14:02:00,
2013-02-03 09:11:00,19.0,17.0,29.86,SSE,160,3.0,4.0,90,0.00,,,0.00,,2013-02-03 14:11:00,
2013-02-03 09:21:00,20.0,17.0,29.86,SSE,160,0.0,3.0,89,0.00,,,0.00,,2013-02-03 14:21:00,
2013-02-03 09:32:00,20.0,17.0,29.85,East,79,1.0,4.0,89,0.00,,,0.00,,2013-02-03 14:32:00,
2013-02-03 09:42:00,20.0,17.0,29.85,East,79,1.0,4.0,89,0.00,,,0.00,,2013-02-03 14:42:00,
2013-02-03 09:52:00,20.0,17.0,29.85,ESE,107,0.0,3.0,88,0.00,,,0.00,,2013-02-03 14:52:00,
2013-02-03 10:03:00,20.0,17.0,29.85,ESE,107,0.0,2.0,88,0.00,,,0.00,,2013-02-03 15:03:00,
2013-02-03 10:11:00,21.0,18.0,29.85,ESE,107,0.0,2.0,88,0.00,,,0.00,,2013-02-03 15:11:00,
2013-02-03 10:22:00,21.0,18.0,29.85,ESE,107,0.0,2.0,88,0.00,,,0.00,,2013-02-03 15:22:00,
2013-02-03 10:33:00,21.0,18.0,29.84,East,100,2.0,3.0,87,0.00,,,0.00,,2013-02-03 15:33:00,
2013-02-03 10:42:00,21.0,18.0,29.84,East,100,2.0,3.0,87,0.00,,,0.00,,2013-02-03 15:42:00,
2013-02-03 10:52:00,21.0,17.0,29.84,NE,43,1.0,4.0,85,0.00,,,0.00,,2013-02-03 15:52:00,
2013-02-03 11:03:00,22.0,18.0,29.84,NE,43,0.0,2.0,83,0.00,,,0.00,,2013-02-03 16:03:00,
2013-02-03 11:11:00,22.0,18.0,29.84,NE,43,0.0,2.0,83,0.00,,,0.00,,2013-02-03 16:11:00,
2013-02-03 11:22:00,22.0,17.0,29.83,ESE,103,0.0,3.0,81,0.00,,,0.00,,2013-02-03 16:22:00,
2013-02-03 11:33:00,23.0,18.0,29.82,NE,53,3.0,4.0,81,0.00,,,0.00,,2013-02-03 16:33:00,
2013-02-03 11:42:00,23.0,18.0,29.82,NE,53,3.0,4.0,81,0.00,,,0.00,,2013-02-03 16:42:00,
2013-02-03 11:52:00,22.0,17.0,29.81,SSE,157,0.0,2.0,81,0.00,,,0.00,,2013-02-03 16:52:00,
2013-02-03 12:02:00,23.0,18.0,29.80,ENE,71,0.0,3.0,80,0.01,,,0.01,,2013-02-03 17:02:00,
2013-02-03 12:11:00,23.0,18.0,29.80,ENE,71,0.0,3.0,80,0.01,,,0.01,,2013-02-03 17:11:00,
2013-02-03 12:22:00,23.0,18.0,29.79,South,174,0.0,5.0,80,0.01,,,0.01,,2013-02-03 17:22:00,
2013-02-03 12:32:00,24.0,18.0,29.78,South,174,0.0,4.0,79,0.02,,,0.02,,2013-02-03 17:32:00,
2013-02-03 12:42:00,24.0,18.0,29.78,South,174,0.0,4.0,79,0.02,,,0.02,,2013-02-03 17:42:00,
2013-02-03 12:52:00,25.0,19.0,29.78,South,174,0.0,4.0,76,0.02,,,0.02,,2013-02-03 17:52:00,
2013-02-03 13:03:00,25.0,19.0,29.76,NNE,24,3.0,4.0,76,0.01,,,0.02,,2013-02-03 18:03:00,
2013-02-03 13:12:00,25.0,19.0,29.76,NNE,24,3.0,4.0,76,0.01,,,0.02,,2013-02-03 18:12:00,
2013-02-03 13:23:00,25.0,18.0,29.76,WSW,241,1.0,3.0,75,0.02,,,0.03,,2013-02-03 18:23:00,
2013-02-03 13:33:00,25.0,18.0,29.75,West,259,0.0,5.0,75,0.01,,,0.03,,2013-02-03 18:33:00,
2013-02-03 13:42:00,25.0,18.0,29.75,West,259,0.0,5.0,75,0.01,,,0.03,,2013-02-03 18:42:00,
2013-02-03 13:52:00,26.0,19.0,29.75,WSW,254,2.0,6.0,74,0.02,,,0.04,,2013-02-03 18:52:00,
2013-02-03 14:02:00,25.0,18.0,29.74,NNW,346,2.0,5.0,75,0.02,,,0.04,,2013-02-03 19:02:00,
2013-02-03 14:11:00,25.0,18.0,29.74,NNW,346,2.0,5.0,75,0.02,,,0.04,,2013-02-03 19:11:00,
2013-02-03 14:22:00,26.0,19.0,29.73,West,275,1.0,6.0,73,0.01,,,0.04,,2013-02-03 19:22:00,
2013-02-03 14:32:00,26.0,19.0,29.73,NW,324,4.0,12.0,75,0.01,,,0.04,,2013-02-03 19:32:00,
2013-02-03 14:42:00,26.0,19.0,29.73,NW,324,4.0,12.0,75,0.01,,,0.04,,2013-02-03 19:42:00,
2013-02-03 14:52:00,26.0,19.0,29.73,NW,325,2.0,4.0,75,0.00,,,0.04,,2013-02-03 19:52:00,
2013-02-03 15:01:00,25.0,18.0,29.72,WNW,293,2.0,5.0,75,0.01,,,0.05,,2013-02-03 20:01:00,
2013-02-03 15:12:00,25.0,18.0,29.72,WNW,293,2.0,5.0,75,0.01,,,0.05,,2013-02-03 20:12:00,
2013-02-03 15:22:00,26.0,19.0,29.73,North,355,1.0,5.0,74,0.01,,,0.05,,2013-02-03 20:22:00,
2013-02-03 15:33:00,26.0,19.0,29.73,WNW,290,1.0,5.0,73,0.01,,,0.05,,2013-02-03 20:33:00,
2013-02-03 15:42:00,26.0,19.0,29.73,WNW,290,1.0,5.0,73,0.01,,,0.05,,2013-02-03 20:42:00,
2013-02-03 15:52:00,27.0,19.0,29.72,North,9,3.0,6.0,72,0.01,,,0.05,,2013-02-03 20:52:00,
2013-02-03 16:03:00,27.0,19.0,29.72,NW,324,3.0,5.0,71,0.00,,,0.05,,2013-02-03 21:03:00,
2013-02-03 16:11:00,27.0,19.0,29.72,NW,324,3.0,5.0,71,0.00,,,0.05,,2013-02-03 21:11:00,
2013-02-03 16:21:00,26.0,18.0,29.73,WNW,290,1.0,5.0,71,0.00,,,0.05,,2013-02-03 21:21:00,
2013-02-03 16:32:00,25.0,17.0,29.72,West,279,0.0,5.0,72,0.00,,,0.05,,2013-02-03 21:32:00,
2013-02-03 16:42:00,25.0,17.0,29.72,West,279,0.0,5.0,72,0.00,,,0.05,,2013-02-03 21:42:00,
2013-02-03 16:52:00,25.0,18.0,29.72,NW,321,2.0,4.0,74,0.00,,,0.05,,2013-02-03 21:52:00,
2013-02-03 17:01:00,25.0,19.0,29.72,North,5,0.0,4.0,77,0.00,,,0.05,,2013-02-03 22:01:00,
2013-02-03 17:11:00,25.0,19.0,29.72,North,5,0.0,4.0,77,0.00,,,0.05,,2013-02-03 22:11:00,
2013-02-03 17:21:00,25.0,19.0,29.72,North,5,0.0,4.0,76,0.00,,,0.05,,2013-02-03 22:21:00,
2013-02-03 17:32:00,24.0,17.0,29.72,WNW,294,0.0,2.0,75,0.00,,,0.05,,2013-02-03 22:32:00,
2013-02-03 17:42:00,24.0,17.0,29.72,WNW,294,0.0,2.0,75,0.00,,,0.05,,2013-02-03 22:42:00,
2013-02-03 17:52:00,24.0,18.0,29.72,WNW,294,0.0,0.0,77,0.00,,,0.05,,2013-02-03 22:52:00,
2013-02-03 18:01:00,23.0,17.0,29.72,WNW,294,0.0,0.0,79,0.00,,,0.05,,2013-02-03 23:01:00,
2013-02-03 18:12:00,23.0,17.0,29.72,WNW,294,0.0,0.0,79,0.00,,,0.05,,2013-02-03 23:12:00,
2013-02-03 18:22:00,22.0,17.0,29.72,WNW,294,0.0,0.0,80,0.00,,,0.05,,2013-02-03 23:22:00,
2013-02-03 18:32:00,21.0,17.0,29.72,WNW,294,0.0,0.0,83,0.00,,,0.05,,2013-02-03 23:32:00,
2013-02-03 18:42:00,21.0,17.0,29.72,WNW,294,0.0,0.0,83,0.00,,,0.05,,2013-02-03 23:42:00,
2013-02-03 18:52:00,20.0,16.0,29.73,WNW,294,0.0,0.0,84,0.00,,,0.05,,2013-02-03 23:52:00,
2013-02-03 19:02:00,19.0,15.0,29.73,WNW,294,0.0,0.0,85,0.00,,,0.05,,2013-02-04 00:02:00,
2013-02-03 19:11:00,19.0,15.0,29.73,WNW,294,0.0,0.0,85,0.00,,,0.05,,2013-02-04 00:11:00,
2013-02-03 19:22:00,19.0,16.0,29.73,WNW,294,0.0,0.0,86,0.00,,,0.05,,2013-02-04 00:22:00,
2013-02-03 19:32:00,19.0,16.0,29.73,WNW,294,0.0,0.0,86,0.00,,,0.05,,2013-02-04 00:32:00,
2013-02-03 19:42:00,19.0,16.0,29.73,WNW,294,0.0,0.0,86,0.00,,,0.05,,2013-02-04 00:42:00,
2013-02-03 19:52:00,18.0,15.0,29.73,WNW,294,0.0,0.0,87,0.00,,,0.05,,2013-02-04 00:52:00,
2013-02-03 20:01:00,18.0,15.0,29.73,WNW,294,0.0,0.0,88,0.00,,,0.05,,2013-02-04 01:01:00,
2013-02-03 20:11:00,18.0,15.0,29.73,WNW,294,0.0,0.0,88,0.00,,,0.05,,2013-02-04 01:11:00,
2013-02-03 20:21:00,18.0,15.0,29.73,WNW,294,0.0,0.0,88,0.00,,,0.05,,2013-02-04 01:21:00,
2013-02-03 20:32:00,18.0,15.0,29.73,WNW,294,0.0,0.0,89,0.00,,,0.05,,2013-02-04 01:32:00,
2013-02-03 20:42:00,18.0,15.0,29.73,WNW,294,0.0,0.0,89,0.00,,,0.05,,2013-02-04 01:42:00,
2013-02-03 20:52:00,18.0,15.0,29.73,WNW,294,0.0,0.0,89,0.00,,,0.05,,2013-02-04 01:52:00,
2013-02-03 21:02:00,18.0,15.0,29.73,WNW,294,0.0,0.0,89,0.00,,,0.05,,2013-02-04 02:02:00,
2013-02-03 21:11:00,18.0,15.0,29.73,WNW,294,0.0,0.0,89,0.00,,,0.05,,2013-02-04 02:11:00,
2013-02-03 21:21:00,18.0,16.0,29.73,WNW,294,0.0,0.0,90,0.00,,,0.05,,2013-02-04 02:21:00,
2013-02-03 21:32:00,18.0,16.0,29.73,WNW,294,0.0,0.0,90,0.00,,,0.05,,2013-02-04 02:32:00,
2013-02-03 21:41:00,18.0,16.0,29.73,WNW,294,0.0,0.0,90,0.00,,,0.05,,2013-02-04 02:41:00,
2013-02-03 21:52:00,17.0,15.0,29.73,WNW,294,0.0,1.0,90,0.00,,,0.05,,2013-02-04 02:52:00,
2013-02-03 22:02:00,17.0,15.0,29.72,WNW,294,0.0,0.0,91,0.00,,,0.05,,2013-02-04 03:02:00,
2013-02-03 22:11:00,17.0,15.0,29.72,WNW,294,0.0,1.0,91,0.00,,,0.05,,2013-02-04 03:11:00,
2013-02-03 22:21:00,17.0,15.0,29.72,WNW,294,0.0,1.0,91,0.00,,,0.05,,2013-02-04 03:21:00,
2013-02-03 22:32:00,18.0,16.0,29.72,WNW,294,0.0,0.0,92,0.00,,,0.05,,2013-02-04 03:32:00,
2013-02-03 22:42:00,18.0,16.0,29.72,WNW,294,0.0,0.0,92,0.00,,,0.05,,2013-02-04 03:42:00,
2013-02-03 22:52:00,19.0,17.0,29.72,SW,218,1.0,4.0,93,0.00,,,0.05,,2013-02-04 03:52:00,
2013-02-03 23:01:00,21.0,19.0,29.72,SW,224,1.0,2.0,93,0.00,,,0.05,,2013-02-04 04:01:00,
2013-02-03 23:11:00,21.0,19.0,29.72,SW,224,1.0,2.0,93,0.00,,,0.05,,2013-02-04 04:11:00,
2013-02-03 23:21:00,22.0,20.0,29.72,West,259,0.0,2.0,92,0.00,,,0.05,,2013-02-04 04:21:00,
2013-02-03 23:32:00,23.0,21.0,29.72,West,267,0.0,4.0,91,0.00,,,0.05,,2013-02-04 04:32:00,
2013-02-03 23:42:00,23.0,21.0,29.72,West,267,0.0,4.0,91,0.00,,,0.05,,2013-02-04 04:42:00,
2013-02-03 23:52:00,23.0,21.0,29.72,WNW,286,4.0,10.0,90,0.00,,,0.05,,2013-02-04 04:52:00,